User: anonymous   Login
Location: Stillwell
(40.4602°N, 82.0928°W)
Time: 08:57:45
(UTC-05:00)
Language:

Cosmos 2333 Rocket - Orbit

View from above orbital plane
View from above orbital plane
View from above satellite
View from above satellite

Ground track
Ground track

The orbit data is extracted from the following two-line orbital elements,

1 24298U 96051B   15029.64434998 -.00000151  00000-0 -55730-4 0  6563
2 24298 070.8534 095.0199 0014664 026.8445 127.5842 14.12444564949047
Epoch (UTC): 29 January 2015 15:27:51
Eccentricity: 0.0014664
inclination: 70.8534°
perigee height: 840 km
apogee height: 861 km
right ascension of ascending node: 95.0199°
argument of perigee: 26.8445°
revolutions per day: 14.12444564
mean anomaly at epoch: 127.5842°
orbit number at epoch: 94904

The dashed part of the orbit path shows where the satellite is in the earth's shadow,  

DLR